ITY89D LROP-LIBP

Flight info

Callsign ITY89D
Flight time N/A
Altitude 36000
Route POLUN1M/26R POLUN KV301 SPL VAPUP OTRET OTRE2B/22
Aircraft A20N/M-VGDW/C

Departure

Time N/A
Airport Bucharest Henri Coandă International Airport (LROP)

Arrival

Time 2026-04-23 21:21
Airport Abruzzo Airport (LIBP)
Time Latitude Longitude Altitude Speed Heading
2026-04-23 20:33 43.62970 19.76417 0 ft 473 kts 268°
2026-04-23 20:33 43.62859 19.71934 0 ft 473 kts 268°
2026-04-23 20:34 43.62745 19.67403 0 ft 473 kts 268°
2026-04-23 20:34 43.62629 19.62849 0 ft 474 kts 268°
2026-04-23 20:34 43.62513 19.58310 0 ft 474 kts 268°
2026-04-23 20:34 43.62394 19.53762 0 ft 476 kts 268°
2026-04-23 20:35 43.62273 19.49193 0 ft 472 kts 268°
2026-04-23 20:35 43.62154 19.44709 0 ft 463 kts 268°
2026-04-23 20:35 43.62034 19.40298 0 ft 459 kts 268°
2026-04-23 20:35 43.61914 19.35909 0 ft 457 kts 268°
2026-04-23 20:36 43.61793 19.31542 0 ft 452 kts 268°
2026-04-23 20:36 43.61672 19.27241 0 ft 447 kts 268°
2026-04-23 20:36 43.61550 19.22980 0 ft 443 kts 268°
2026-04-23 20:36 43.61429 19.18767 0 ft 440 kts 268°
2026-04-23 20:37 43.61307 19.14561 0 ft 435 kts 268°
2026-04-23 20:37 43.61186 19.10456 0 ft 431 kts 268°
2026-04-23 20:37 43.61065 19.06355 0 ft 427 kts 268°
2026-04-23 20:37 43.60942 19.02264 0 ft 423 kts 268°
2026-04-23 20:38 43.60819 18.98225 0 ft 419 kts 268°
2026-04-23 20:38 43.60696 18.94214 0 ft 415 kts 268°
2026-04-23 20:38 43.60574 18.90261 0 ft 412 kts 268°
2026-04-23 20:38 43.60451 18.86328 0 ft 408 kts 267°
2026-04-23 20:39 43.60329 18.82444 0 ft 405 kts 267°
2026-04-23 20:39 43.60245 18.79816 0 ft 421 kts 267°
2026-04-23 20:39 43.60112 18.75668 0 ft 447 kts 267°
2026-04-23 20:39 43.59923 18.69808 0 ft 472 kts 267°
2026-04-23 20:40 43.59824 18.66790 0 ft 467 kts 267°
2026-04-23 20:40 43.59678 18.62364 0 ft 461 kts 267°
2026-04-23 20:40 43.59531 18.57958 0 ft 464 kts 267°
2026-04-23 20:40 43.59379 18.53464 0 ft 465 kts 267°
2026-04-23 20:41 43.59229 18.49062 0 ft 457 kts 267°
2026-04-23 20:41 43.59081 18.44747 0 ft 454 kts 267°
2026-04-23 20:41 43.58930 18.40430 0 ft 448 kts 267°
2026-04-23 20:41 43.58778 18.36129 0 ft 451 kts 267°
2026-04-23 20:42 43.58624 18.31805 0 ft 447 kts 267°
2026-04-23 20:42 43.58470 18.27545 0 ft 443 kts 267°
2026-04-23 20:42 43.58317 18.23326 0 ft 440 kts 267°
2026-04-23 20:42 43.58163 18.19131 0 ft 434 kts 267°
2026-04-23 20:43 43.58009 18.15014 0 ft 434 kts 267°
2026-04-23 20:43 43.57852 18.10818 0 ft 438 kts 267°
2026-04-23 20:43 43.57694 18.06652 0 ft 436 kts 267°
2026-04-23 20:43 43.57534 18.02456 0 ft 438 kts 267°
2026-04-23 20:44 43.57373 17.98283 0 ft 436 kts 267°
2026-04-23 20:44 43.57213 17.94142 0 ft 437 kts 267°
2026-04-23 20:44 43.57049 17.89960 0 ft 437 kts 267°
2026-04-23 20:44 43.56883 17.85765 0 ft 436 kts 267°
2026-04-23 20:45 43.56716 17.81589 0 ft 437 kts 267°
2026-04-23 20:45 43.56547 17.77393 0 ft 437 kts 266°
2026-04-23 20:45 43.56377 17.73222 0 ft 436 kts 266°
2026-04-23 20:45 43.56205 17.69032 0 ft 437 kts 266°
2026-04-23 20:46 43.56032 17.64846 0 ft 437 kts 266°
2026-04-23 20:46 43.55857 17.60663 0 ft 437 kts 266°
2026-04-23 20:46 43.55681 17.56494 0 ft 437 kts 266°
2026-04-23 20:46 43.55503 17.52303 0 ft 437 kts 266°
2026-04-23 20:47 43.55324 17.48123 0 ft 437 kts 266°
2026-04-23 20:47 43.55145 17.43993 0 ft 437 kts 266°
2026-04-23 20:47 43.54963 17.39816 0 ft 437 kts 266°
2026-04-23 20:47 43.54778 17.35615 0 ft 437 kts 266°
2026-04-23 20:48 43.54592 17.31433 0 ft 437 kts 266°
2026-04-23 20:48 43.54406 17.27257 0 ft 437 kts 266°
2026-04-23 20:48 43.54219 17.23098 0 ft 437 kts 266°
2026-04-23 20:49 43.53457 17.06513 0 ft 437 kts 266°
2026-04-23 20:49 43.53264 17.02396 0 ft 437 kts 266°
2026-04-23 20:50 43.53067 16.98227 0 ft 437 kts 266°
2026-04-23 20:50 43.52869 16.94053 0 ft 437 kts 266°
2026-04-23 20:50 43.52669 16.89892 0 ft 437 kts 266°
2026-04-23 20:50 43.52467 16.85707 0 ft 436 kts 266°
2026-04-23 20:51 43.52265 16.81548 0 ft 437 kts 266°
2026-04-23 20:51 43.52059 16.77347 0 ft 437 kts 266°
2026-04-23 20:51 43.51852 16.73173 0 ft 437 kts 266°
2026-04-23 20:51 43.51645 16.69008 0 ft 436 kts 266°
2026-04-23 20:52 43.51435 16.64829 0 ft 437 kts 266°
2026-04-23 20:52 43.51224 16.60647 0 ft 437 kts 266°
2026-04-23 20:52 43.51012 16.56473 0 ft 436 kts 266°
2026-04-23 20:52 43.50799 16.52312 0 ft 437 kts 266°
2026-04-23 20:53 43.50583 16.48134 0 ft 437 kts 266°
2026-04-23 20:53 43.50367 16.43961 0 ft 436 kts 266°
2026-04-23 20:53 43.50163 16.40055 0 ft 437 kts 266°
2026-04-23 20:53 43.49928 16.35880 0 ft 437 kts 263°
2026-04-23 20:54 43.49218 16.31818 0 ft 437 kts 250°
2026-04-23 20:54 43.48029 16.27980 0 ft 437 kts 245°
2026-04-23 20:54 43.46659 16.24241 0 ft 438 kts 243°
2026-04-23 20:54 43.45228 16.20547 0 ft 438 kts 242°
2026-04-23 20:55 43.43778 16.16865 0 ft 437 kts 242°
2026-04-23 20:55 43.42330 16.13200 0 ft 437 kts 242°
2026-04-23 20:55 43.40874 16.09511 0 ft 438 kts 242°
2026-04-23 20:55 43.39429 16.05842 0 ft 437 kts 242°
2026-04-23 20:56 43.37986 16.02170 0 ft 437 kts 242°
2026-04-23 20:56 43.36546 15.98501 0 ft 438 kts 242°
2026-04-23 20:56 43.35114 15.94851 0 ft 436 kts 242°
2026-04-23 20:56 43.33676 15.91184 0 ft 436 kts 242°
2026-04-23 20:57 43.32234 15.87508 0 ft 438 kts 242°
2026-04-23 20:57 43.30791 15.83836 0 ft 437 kts 242°
2026-04-23 20:57 43.29349 15.80168 0 ft 436 kts 242°
2026-04-23 20:57 43.27908 15.76509 0 ft 437 kts 242°
2026-04-23 20:58 43.26461 15.72841 0 ft 437 kts 242°
2026-04-23 20:58 43.25013 15.69178 0 ft 436 kts 242°
2026-04-23 20:58 43.23563 15.65516 0 ft 437 kts 242°
2026-04-23 20:58 43.22115 15.61865 0 ft 437 kts 242°
2026-04-23 20:59 43.20661 15.58207 0 ft 436 kts 242°
2026-04-23 20:59 43.19211 15.54564 0 ft 437 kts 242°
2026-04-23 20:59 43.17768 15.50949 0 ft 437 kts 242°
2026-04-23 20:59 43.16292 15.47255 0 ft 436 kts 242°
2026-04-23 21:00 43.14834 15.43614 0 ft 436 kts 241°
2026-04-23 21:00 43.13390 15.40012 0 ft 437 kts 241°
2026-04-23 21:00 43.11921 15.36352 0 ft 437 kts 241°
2026-04-23 21:00 43.10462 15.32723 0 ft 436 kts 241°
2026-04-23 21:01 43.08994 15.29074 0 ft 437 kts 241°
2026-04-23 21:01 43.07531 15.25418 0 ft 437 kts 242°
2026-04-23 21:01 43.06180 15.21699 0 ft 436 kts 245°
2026-04-23 21:01 43.04895 15.17944 0 ft 436 kts 245°
2026-04-23 21:02 43.03644 15.14217 0 ft 437 kts 245°
2026-04-23 21:02 43.02383 15.10441 0 ft 436 kts 245°
2026-04-23 21:02 43.01146 15.06661 0 ft 436 kts 247°
2026-04-23 21:02 42.99990 15.02835 0 ft 437 kts 248°
2026-04-23 21:03 42.98863 14.98982 0 ft 437 kts 248°
2026-04-23 21:03 42.97745 14.95144 0 ft 438 kts 248°
2026-04-23 21:03 42.96642 14.91372 0 ft 417 kts 248°
2026-04-23 21:03 42.95587 14.87788 0 ft 398 kts 248°
2026-04-23 21:04 42.94574 14.84364 0 ft 382 kts 248°
2026-04-23 21:04 42.93591 14.81062 0 ft 368 kts 248°
2026-04-23 21:04 42.92639 14.77882 0 ft 358 kts 248°
2026-04-23 21:04 42.91708 14.74786 0 ft 350 kts 248°
2026-04-23 21:05 42.90779 14.71710 0 ft 349 kts 248°
2026-04-23 21:05 42.89854 14.68655 0 ft 348 kts 248°
2026-04-23 21:05 42.88935 14.65633 0 ft 344 kts 248°
2026-04-23 21:05 42.88033 14.62677 0 ft 340 kts 248°
2026-04-23 21:06 42.87125 14.59705 0 ft 338 kts 248°
2026-04-23 21:06 42.86225 14.56767 0 ft 335 kts 248°
2026-04-23 21:06 42.85330 14.53851 0 ft 331 kts 248°
2026-04-23 21:06 42.84447 14.50977 0 ft 329 kts 248°
2026-04-23 21:07 42.83567 14.48115 0 ft 322 kts 248°
2026-04-23 21:07 42.82714 14.45351 0 ft 311 kts 248°
2026-04-23 21:07 42.81887 14.42670 0 ft 302 kts 248°
2026-04-23 21:07 42.81088 14.40084 0 ft 294 kts 248°
2026-04-23 21:08 42.80305 14.37552 0 ft 287 kts 247°
2026-04-23 21:08 42.79538 14.35074 0 ft 282 kts 247°
2026-04-23 21:08 42.78783 14.32635 0 ft 277 kts 247°
2026-04-23 21:08 42.78043 14.30248 0 ft 273 kts 247°
2026-04-23 21:09 42.77309 14.27885 0 ft 269 kts 247°
2026-04-23 21:09 42.76590 14.25571 0 ft 255 kts 247°
2026-04-23 21:09 42.75906 14.23369 0 ft 257 kts 247°
2026-04-23 21:09 42.75207 14.21124 0 ft 257 kts 247°
2026-04-23 21:10 42.74505 14.18868 0 ft 261 kts 247°
2026-04-23 21:10 42.73798 14.16602 0 ft 259 kts 247°
2026-04-23 21:10 42.73101 14.14365 0 ft 261 kts 247°
2026-04-23 21:10 42.72394 14.12101 0 ft 260 kts 247°
2026-04-23 21:11 42.71677 14.09806 0 ft 261 kts 247°
2026-04-23 21:11 42.70869 14.07608 0 ft 259 kts 234°
2026-04-23 21:11 42.69568 14.05956 0 ft 265 kts 211°
2026-04-23 21:11 42.67870 14.05098 0 ft 264 kts 189°
2026-04-23 21:12 42.66036 14.05186 0 ft 264 kts 166°
2026-04-23 21:12 42.64370 14.06207 0 ft 266 kts 144°
2026-04-23 21:12 42.63100 14.08003 0 ft 268 kts 122°
2026-04-23 21:12 42.62403 14.10326 0 ft 268 kts 100°
2026-04-23 21:13 42.62232 14.12853 0 ft 271 kts 96°
2026-04-23 21:13 42.62337 14.15361 0 ft 264 kts 74°
2026-04-23 21:13 42.63137 14.17543 0 ft 256 kts 50°
2026-04-23 21:13 42.64491 14.19135 0 ft 260 kts 31°
2026-04-23 21:14 42.66027 14.20405 0 ft 259 kts 32°
2026-04-23 21:14 42.67444 14.21935 0 ft 261 kts 46°
2026-04-23 21:14 42.68434 14.23985 0 ft 262 kts 69°
2026-04-23 21:14 42.68773 14.26382 0 ft 263 kts 91°
2026-04-23 21:15 42.68412 14.28788 0 ft 262 kts 114°
2026-04-23 21:15 42.67414 14.30769 0 ft 242 kts 139°
2026-04-23 21:15 42.66096 14.31816 0 ft 205 kts 168°
2026-04-23 21:15 42.64675 14.32132 0 ft 209 kts 174°
2026-04-23 21:16 42.63232 14.32360 0 ft 212 kts 174°
2026-04-23 21:16 42.61804 14.32582 0 ft 202 kts 174°
2026-04-23 21:16 42.60448 14.32792 0 ft 190 kts 174°
2026-04-23 21:16 42.59167 14.32992 0 ft 183 kts 175°
2026-04-23 21:17 42.57919 14.32911 0 ft 180 kts 201°
2026-04-23 21:17 42.56853 14.32182 0 ft 163 kts 211°
2026-04-23 21:17 42.55898 14.31439 0 ft 157 kts 214°
2026-04-23 21:17 42.55026 14.30598 0 ft 156 kts 218°
2026-04-23 21:18 42.54155 14.29705 0 ft 154 kts 218°
2026-04-23 21:18 42.53303 14.28831 0 ft 154 kts 218°
2026-04-23 21:18 42.52458 14.27963 0 ft 154 kts 218°
2026-04-23 21:18 42.51616 14.27094 0 ft 153 kts 218°
2026-04-23 21:19 42.50770 14.26220 0 ft 153 kts 218°
2026-04-23 21:19 42.49925 14.25345 0 ft 152 kts 218°
2026-04-23 21:19 42.49088 14.24479 0 ft 151 kts 218°
2026-04-23 21:19 42.48253 14.23615 0 ft 151 kts 218°
2026-04-23 21:20 42.47419 14.22751 0 ft 151 kts 218°
2026-04-23 21:20 42.46589 14.21891 0 ft 150 kts 218°
2026-04-23 21:20 42.45760 14.21031 0 ft 150 kts 218°
2026-04-23 21:20 42.44945 14.20187 0 ft 150 kts 218°
2026-04-23 21:21 42.44116 14.19331 0 ft 149 kts 218°
2026-04-23 21:21 42.43283 14.18473 0 ft 146 kts 219°
2026-04-23 21:21 42.42650 14.17811 0 ft 70 kts 217°
2026-04-23 21:21 42.42492 14.17648 0 ft 16 kts 217°
2026-04-23 21:22 42.42409 14.17562 0 ft 14 kts 217°
2026-04-23 21:22 42.42349 14.17508 0 ft 7 kts 210°
2026-04-23 21:22 42.42330 14.17497 0 ft 1 kts 194°
2026-04-23 21:22 42.42321 14.17495 0 ft 2 kts 190°
2026-04-23 21:23 42.42308 14.17493 0 ft 2 kts 179°
2026-04-23 21:23 42.42297 14.17496 0 ft 2 kts 165°
2026-04-23 21:23 42.42287 14.17503 0 ft 2 kts 138°
2026-04-23 21:23 42.42273 14.17531 0 ft 7 kts 117°
2026-04-23 21:24 42.42272 14.17569 0 ft 6 kts 84°
2026-04-23 21:24 42.42281 14.17670 0 ft 14 kts 81°
2026-04-23 21:24 42.42335 14.17765 0 ft 15 kts 37°
2026-04-23 21:24 42.42437 14.17870 0 ft 22 kts 37°
2026-04-23 21:25 42.42574 14.18015 0 ft 28 kts 38°
2026-04-23 21:25 42.42748 14.18194 0 ft 34 kts 37°
2026-04-23 21:25 42.42936 14.18391 0 ft 31 kts 38°
2026-04-23 21:25 42.43019 14.18553 0 ft 16 kts 80°
2026-04-23 21:26 42.43051 14.18655 0 ft 7 kts 37°
2026-04-23 21:26 42.43100 14.18700 0 ft 7 kts 28°
2026-04-23 21:26 42.43117 14.18700 0 ft 0 kts 331°